Theta_e
316 317 318 319 319 324 327 332 341 354 356 361 358 358 357 356 353 353 355 354 351 351 353 343 353 357 353 352 355 351 351 348 347 342 342 342 342 340 338 337 335 334 332
314 316 317 318 320 325 329 334 338 348 350 353 360 361 360 356 353 353 355 354 349 349 349 352 355 360 349 355 354 354 350 345 340 337 334 329 335 336 339 337 334 332 329
314 315 317 318 319 322 329 331 339 347 348 350 361 358 361 351 352 350 350 351 348 352 357 359 358 359 356 349 355 353 348 342 337 336 329 323 321 322 331 333 328 333 325
315 316 317 317 318 319 321 329 336 347 350 356 356 354 349 343 348 349 350 349 350 353 357 361 358 360 352 355 350 348 346 343 335 333 331 331 327 317 315 323 325 326 325
314 315 316 317 319 320 320 328 336 342 350 352 354 354 353 354 352 350 355 351 353 356 353 357 356 355 350 348 344 342 339 333 330 326 324 325 322 325 319 312 315 319 321
312 314 317 318 318 319 320 322 331 340 345 349 352 353 351 349 344 351 347 342 343 355 357 354 352 351 345 340 336 334 332 330 328 323 322 318 317 315 315 312 314 314 317
312 313 313 315 317 317 318 319 322 330 340 345 347 351 353 356 344 354 349 345 346 350 349 349 346 338 334 332 332 332 328 325 323 323 319 322 318 317 316 313 312 311 314
313 313 315 316 316 317 319 319 321 325 335 342 345 351 354 355 356 350 349 350 349 348 346 336 334 332 331 329 326 321 319 320 318 319 320 319 318 317 316 313 311 308 310
312 314 315 317 318 320 321 321 323 324 332 339 343 352 352 352 353 353 347 343 349 338 337 335 332 327 324 321 321 317 317 321 324 321 322 319 317 317 316 315 314 310 305
312 313 315 316 319 321 323 325 327 325 329 337 341 344 348 344 352 347 343 342 341 333 331 326 325 322 320 315 319 318 322 322 319 319 319 319 317 317 315 314 314 312 309
311 312 313 315 318 319 320 324 325 325 327 333 340 342 348 351 345 348 341 337 335 331 331 327 323 319 316 320 321 321 320 318 318 317 316 315 317 313 312 312 312 311 310
311 313 312 313 317 318 319 321 324 325 325 327 337 340 350 347 340 337 337 334 329 329 329 320 320 319 319 320 320 318 316 315 314 314 313 311 311 313 314 311 313 312 313
310 311 312 313 316 317 319 320 323 324 326 326 334 339 346 344 338 335 332 329 328 325 322 321 320 319 318 317 318 316 315 314 312 311 310 308 308 308 308 310 309 309 310
309 310 311 312 315 317 318 320 323 325 326 326 333 337 340 332 328 330 330 327 325 323 323 321 320 318 316 316 316 314 313 311 310 309 307 306 305 306 306 307 308 308 307
306 308 308 311 313 316 319 321 323 325 327 329 331 330 338 335 327 326 327 324 324 323 323 319 318 319 317 314 314 313 312 310 308 308 306 305 305 303 302 304 307 307 306
305 306 306 308 311 313 317 321 323 324 328 328 331 331 329 325 326 327 324 322 322 321 318 318 314 307 306 303 307 310 309 308 308 307 306 305 302 305 304 303 302 301 305
304 305 304 307 311 314 317 319 323 325 328 329 331 329 329 325 318 318 319 319 315 309 307 306 304 304 302 300 301 305 307 306 305 305 305 303 301 302 306 307 307 302 301
303 303 303 306 313 316 318 320 323 324 327 330 325 324 323 320 315 313 308 307 306 304 301 303 302 301 300 298 299 301 304 302 302 303 304 302 301 297 300 306 307 308 309
303 302 304 305 310 315 318 320 322 324 326 326 322 318 316 312 311 307 305 305 302 300 300 299 300 300 298 297 298 302 305 303 301 299 299 300 298 293 294 304 304 305 307
301 301 303 305 309 312 317 321 321 324 323 323 320 319 317 312 308 305 304 302 303 302 300 300 299 299 298 293 294 301 303 303 302 303 299 292 295 292 293 303 303 303 304
301 303 304 306 308 312 316 316 321 320 320 321 320 316 314 309 308 304 303 303 300 299 298 296 298 298 298 297 293 294 304 302 301 299 298 298 292 292 293 294 303 301 298
301 304 305 306 311 312 314 317 316 317 315 316 315 312 308 306 303 300 300 302 299 297 295 296 296 296 297 295 293 293 295 300 299 298 299 300 292 292 293 298 293 295 302
300 304 305 307 311 314 317 313 312 313 312 310 306 305 304 302 301 300 300 297 298 295 294 294 295 295 295 296 294 293 294 296 299 300 294 293 294 294 299 294 296 299 302
302 305 307 310 311 317 313 312 311 310 308 306 304 304 302 301 302 302 300 300 298 297 297 297 298 299 299 300 300 299 299 297 301 300 302 299 297 297 301 302 302 301 299
309 308 309 311 316 312 310 310 308 307 304 304 304 303 304 303 300 295 299 296 297 300 299 298 297 295 293 292 291 295 298 299 294 301 304 304 304 303 301 300 299 298 297
304 304 305 306 307 307 306 307 307 305 303 301 299 296 296 295 294 291 290 289 289 289 289 290 292 291 290 289 290 290 290 291 291 301 302 302 301 298 297 295 294 295 294
Wind_Speed
18 16 16 15 16 13 11 10 12 12 10 10 10 10 11 11 10 10 11 14 12 12 10 7 6 8 7 3 5 4 5 5 3 5 8 7 7 4 3 4 4 7 6
18 17 17 16 16 14 11 11 12 12 11 10 9 10 11 11 11 11 11 14 14 14 11 10 10 9 6 5 5 2 5 1 4 6 7 5 6 7 7 3 4 5 6
18 16 16 17 16 16 12 11 11 13 13 15 9 10 10 9 7 12 12 13 15 14 12 9 8 7 5 8 4 3 1 4 3 5 6 6 4 6 7 4 2 3 5
15 14 15 17 17 16 15 13 11 11 12 14 10 15 10 11 11 12 12 12 14 14 12 9 8 6 5 8 5 3 2 1 1 2 3 3 6 5 4 6 6 4 7
9 13 15 15 17 17 15 11 10 10 12 11 14 13 14 11 10 11 14 13 12 13 14 12 10 8 6 7 7 7 6 5 3 5 2 3 5 2 3 8 9 9 8
6 10 12 14 15 15 15 14 11 10 12 13 15 16 16 15 12 13 12 12 12 10 12 11 9 8 10 9 8 9 9 6 4 3 3 4 3 4 5 8 9 9 10
7 7 8 12 13 16 16 13 13 12 12 12 16 17 18 17 14 13 13 14 12 10 11 12 11 9 12 10 7 8 9 6 4 3 5 3 5 7 5 7 9 10 9
10 3 6 7 8 14 14 13 13 11 14 13 16 15 16 10 11 14 10 8 10 11 11 12 13 14 13 11 10 9 7 4 5 4 5 4 7 7 6 6 8 9 9
3 4 3 5 7 10 7 7 10 12 13 13 13 13 13 16 13 13 11 9 10 11 15 14 15 14 11 11 9 8 5 5 5 6 7 6 7 6 5 5 6 7 10
4 5 5 6 5 6 9 8 10 13 14 12 12 12 15 13 15 15 15 13 17 15 13 15 15 12 12 10 10 7 5 7 6 7 9 8 6 5 6 6 6 7 8
7 7 9 9 8 9 11 9 7 11 14 11 10 12 14 15 14 14 14 16 16 16 16 17 17 11 9 9 8 8 7 8 9 8 8 8 8 6 7 7 8 7 9
13 13 12 15 14 12 11 10 7 7 12 14 11 12 12 9 12 16 16 17 18 15 19 17 17 13 12 10 8 7 7 8 11 10 9 9 7 8 8 7 8 8 9
10 13 15 15 15 14 12 12 9 9 10 14 11 10 8 10 11 17 18 18 18 19 20 14 17 14 12 11 8 8 8 11 11 10 10 9 10 9 8 8 9 9 8
13 12 14 14 16 15 14 12 8 10 10 13 9 8 8 10 7 16 23 20 20 22 17 19 15 14 13 14 11 9 10 10 10 10 10 10 10 10 11 9 10 10 10
15 14 14 14 14 17 14 12 9 8 10 10 5 9 9 13 14 16 4 19 19 19 16 19 14 13 13 11 13 11 10 11 10 9 10 11 10 5 6 8 8 10 10
19 15 16 18 17 16 15 14 10 7 10 10 17 13 16 14 11 19 13 16 18 18 19 15 14 12 10 14 11 12 9 12 11 8 9 10 14 11 4 5 5 5 11
20 20 19 19 18 15 15 15 11 6 10 4 20 14 18 21 20 15 15 12 17 19 18 15 15 12 11 12 10 11 12 12 11 10 9 10 10 13 11 8 5 8 2
21 15 13 16 17 12 15 14 11 6 10 12 15 15 17 18 19 21 16 17 16 17 16 14 13 13 8 12 12 13 15 13 11 11 12 11 13 13 12 11 11 11 10
13 11 14 15 16 15 15 14 12 9 6 15 18 18 21 20 20 21 21 7 17 17 13 14 13 10 7 8 6 12 13 13 12 14 13 13 12 14 18 13 12 12 11
16 17 18 19 16 18 15 16 13 10 15 17 20 21 20 21 21 23 20 7 15 16 14 13 11 10 10 11 12 7 9 10 10 11 13 11 9 9 13 13 12 12 12
22 20 19 17 16 17 14 14 8 14 11 17 21 20 21 23 22 23 20 8 14 16 16 13 11 12 12 13 15 14 8 9 9 9 9 8 7 9 12 14 12 12 10
24 22 18 17 15 14 12 11 15 15 15 16 20 20 21 16 18 25 20 10 16 16 15 13 11 12 13 12 14 15 15 13 11 10 9 8 5 7 10 12 15 14 11
21 18 16 18 16 14 15 16 17 18 18 21 22 21 20 17 20 20 19 12 12 11 13 10 12 12 12 12 12 12 11 9 12 9 4 2 9 7 3 8 11 13 10
19 18 18 19 16 16 20 21 20 20 21 23 23 22 21 20 19 12 9 11 9 10 12 11 11 11 10 9 9 8 7 6 8 5 7 4 4 3 11 13 11 10 10
15 15 12 13 15 22 22 23 23 23 22 22 20 22 18 20 13 9 7 10 12 10 10 11 12 12 10 6 10 11 10 8 7 6 10 11 13 13 12 10 12 10 10
18 17 18 18 21 23 22 22 23 25 25 23 18 17 15 16 12 14 17 28 29 31 26 22 17 14 10 6 8 12 12 9 9 10 11 14 13 12 12 11 10 10 11
Wind_Direction
248 241 237 241 233 226 206 219 219 232 223 205 207 209 209 214 197 194 179 174 180 175 198 191 188 208 229 241 155 202 222 275 332 294 256 213 200 237 250 256 292 314 345
239 234 232 224 233 236 204 218 220 222 235 211 206 211 208 211 196 187 172 184 176 175 186 203 181 196 186 183 177 211 321 151 358 312 307 283 170 210 198 247 330 10 327
253 235 220 221 228 228 218 212 222 212 215 239 198 212 221 230 180 185 180 186 177 176 181 207 190 159 251 159 133 203 315 317 87 357 342 314 347 320 96 151 317 45 301
245 249 238 219 221 231 226 204 221 210 222 216 221 209 214 202 203 187 181 173 181 175 190 181 143 165 200 106 129 107 62 317 217 195 59 12 313 349 8 359 307 264 341
254 258 233 239 214 225 235 223 206 215 226 213 211 217 209 205 205 191 160 175 180 178 170 175 150 138 126 99 126 117 83 84 6 30 6 32 292 135 11 321 338 334 334
329 287 252 229 237 227 225 229 202 212 219 210 219 217 212 214 225 181 156 175 176 168 168 151 128 127 113 120 97 91 83 88 86 97 53 37 316 11 23 337 328 332 334
250 268 237 241 234 231 233 232 216 215 222 211 230 213 222 219 211 180 173 173 164 155 133 134 125 115 110 109 102 95 85 66 60 14 68 29 44 29 12 324 344 329 329
273 281 326 309 251 217 238 242 243 226 218 206 231 222 219 227 204 197 166 159 142 140 130 120 122 120 101 101 103 87 85 74 71 49 41 58 46 27 12 356 336 329 330
346 328 348 319 312 329 316 281 279 245 237 201 224 232 212 218 203 183 155 150 118 125 136 131 111 94 101 93 96 99 121 134 83 74 50 44 38 26 12 353 338 334 332
301 350 348 333 341 309 288 284 296 264 252 214 209 229 220 217 208 183 160 149 130 138 141 109 100 98 94 92 112 141 121 95 82 71 54 32 22 17 6 351 353 341 343
312 324 323 299 301 312 302 265 220 257 257 238 212 226 226 218 206 174 152 135 135 139 123 104 102 105 111 116 106 104 114 108 87 73 61 45 39 6 9 339 9 348 354
309 317 309 309 301 294 296 294 269 263 256 241 215 223 224 213 189 154 145 138 143 125 123 119 123 122 126 130 115 106 117 94 78 65 57 41 30 9 23 353 10 11 339
296 314 321 304 296 283 291 288 291 291 273 243 208 228 196 197 194 139 132 143 134 124 113 127 121 129 126 109 115 115 101 81 76 69 61 49 31 30 10 16 5 10 336
308 298 284 287 291 284 277 284 292 290 272 252 205 229 129 77 42 142 138 139 131 123 130 118 122 131 128 123 115 111 90 86 82 76 61 53 47 30 18 23 6 9 345
290 289 295 289 294 298 271 264 277 271 269 254 216 92 121 150 120 57 95 124 126 115 127 111 128 127 122 117 120 108 106 97 85 71 90 55 34 63 40 20 17 11 8
288 295 301 285 275 269 273 281 272 272 267 215 102 123 109 90 115 135 138 127 120 117 103 111 99 84 78 71 85 107 108 88 73 65 60 69 38 11 221 244 238 20 32
275 291 306 288 267 256 259 262 268 253 263 226 123 127 129 111 90 80 95 106 100 97 97 92 89 90 81 66 77 99 91 81 75 62 46 46 36 20 0 25 77 158 166
290 292 286 300 267 281 266 253 253 238 262 113 121 127 124 113 111 106 80 79 95 88 91 98 100 92 71 82 82 97 94 87 73 58 57 51 36 13 353 28 28 39 18
282 275 275 276 282 269 274 247 240 223 155 136 120 125 123 119 108 102 101 145 103 93 90 93 97 99 92 83 126 110 100 98 91 72 50 51 41 7 353 37 28 35 25
270 265 257 264 265 266 258 268 224 128 143 135 131 128 123 118 117 111 93 120 100 121 104 100 98 112 105 48 35 77 105 115 106 107 91 58 34 0 13 35 26 25 19
260 253 248 241 243 242 249 262 141 138 138 134 126 126 120 118 113 107 108 128 115 106 101 95 96 91 83 55 39 15 96 92 80 72 70 53 21 9 16 8 20 339 328
253 246 236 236 230 224 242 240 132 132 128 126 117 114 117 120 117 112 112 141 114 115 118 115 108 88 82 68 55 51 50 66 77 74 61 54 1 39 6 21 346 1 27
233 228 220 223 212 201 220 137 131 127 125 116 111 112 113 119 117 116 118 132 120 123 111 114 109 107 99 90 83 83 82 78 85 79 101 344 327 315 103 265 13 29 25
201 202 204 202 189 194 131 128 126 124 120 116 114 113 112 112 99 105 144 127 131 115 123 125 116 110 98 104 132 124 120 125 81 142 67 41 274 325 50 42 37 36 32
148 162 178 180 170 128 126 125 125 124 117 113 114 113 105 106 91 72 82 79 53 92 111 110 106 103 96 77 52 62 68 53 25 39 54 52 48 46 38 34 34 30 25
95 101 101 105 119 121 123 127 128 126 121 117 108 107 104 97 104 97 86 59 69 67 64 75 93 83 103 122 85 60 51 37 5 68 59 55 48 43 37 31 26 27 19